Regional Weather Roundup
Issued by NWS

Home | Current Version | Previous Version | Graphics & Text | Print | Product List | Glossary On
Versions: 1 2 3 4 5 6 7 8 9 10 11 12 13 14 15 16 17 18 19 20 21 22 23 24 25 26 27 28 29 30 31 32 33 34 35 36 37 38 39 40 41 42 43 44 45 46 47 48 49 50
000
ASUS44 KMEG 011710
RWRTN
TENNESSEE HOURLY STATE WEATHER ROUNDUP
NATIONAL WEATHER SERVICE MEMPHIS TN
1200 PM CDT TUE SEP 01 2015

TNZ002-004-019-021-049-052-054-088>092-011800-
WEST TENNESSEE

CITY           SKY/WX    TMP DP  RH WIND       PRES   REMARKS
MEMPHIS INTL   PTSUNNY   87  68  52 VRB5      30.11F HX  90
NWS MEMPHIS      N/A     88 N/A N/A MISG        N/A
JACKSON        MOSUNNY   85  68  56 S3        30.13F
DYERSBURG      SUNNY     84  70  61 S8        30.13S
UNION CITY     MOSUNNY   88  70  55 VRB6      30.12S HX  92
PARIS          SUNNY     84  66  54 SE5       30.15S
LEXINGTON      MOSUNNY   84  66  54 E7        30.12F
$$

TNZ008-025-027-028-033-062-065-066-011800-
NORTH MIDDLE TENNESSEE

CITY           SKY/WX    TMP DP  RH WIND       PRES   REMARKS
NASHVILLE      PTSUNNY   87  65  47 E3        30.14F
CLARKSVILLE    SUNNY     86  64  47 E5        30.14F
SMYRNA         MOSUNNY   93  69  45 N5        30.14F HX  98
COOKEVILLE     MOSUNNY   84  70  61 CALM      30.15S
CROSSVILLE     SUNNY     82  63  52 CALM      30.19F
$$

TNZ061-075-076-078-094-096-097-011800-
SOUTH MIDDLE TENNESSEE

CITY           SKY/WX    TMP DP  RH WIND       PRES   REMARKS
FAYETTEVILLE   SUNNY     81  64  57 VRB3      30.15F
TULLAHOMA      MOSUNNY   82  64  54 CALM      30.16F
WINCHESTER     PTSUNNY   84  66  54 VRB5      30.15F
MCMINNVILLE    SUNNY     84  70  61 N5        30.15F
COLUMBIA       SUNNY     86  70  58 CALM      30.13F HX  90
SHELBYVILLE    MOSUNNY   88  70  55 CALM      30.15F HX  92
$$

TNZ017-018-042-046-047-011800-
NORTHEAST TENNESSEE

CITY           SKY/WX    TMP DP  RH WIND       PRES   REMARKS
TRI CITIES     MOSUNNY   84  64  50 VRB5      30.17F
ELIZABETHTON   SUNNY     81  64  57 CALM      30.17F
$$

TNZ012-013-036-069-073-074-011800-
CENTRAL EAST TENNESSEE

CITY           SKY/WX    TMP DP  RH WIND       PRES   REMARKS
KNOXVILLE      PTSUNNY   85  71  63 N6        30.13F HX  90
OAK RIDGE      SUNNY     86  66  51 VRB3      30.15F
GATLINBURG       N/A     86  63  45 VRB6      30.13F
MORRISTOWN     SUNNY     84  64  51 VRB3      30.17F
$$

TNZ083-085-099-011800-
SOUTHEAST TENNESSEE

CITY           SKY/WX    TMP DP  RH WIND       PRES   REMARKS
CHATTANOOGA    PTSUNNY   85  67  54 N6        30.13F
$$

SKY/WX REPORTED AS FAIR MEANS FEW OR NO CLOUDS BELOW
12 THOUSAND FEET.



USA.gov is the U.S. government's official web portal to all federal, state and local government web resources and services.